Home   Weather   Ho Chi Minh   Past weeks

Flag for Vietnam Past Weather in Ho Chi Minh, Vietnam — Yesterday and Last 2 Weeks

Now
79 °F

Passing clouds.


Feels Like: 83 °F
Forecast: 80 / 90 °F
Wind: 2 mph from North

Location: Ho Chi Minh

Current Time: Apr 28, 2017 at 5:41:40 am

Latest Report: Apr 28, 2017 at 5:00 am


Visibility: 4 mi

Pressure: 29.83 "Hg

Humidity: 94%

Dew Point: 77 °F

Location of Ho Chi MinhLocation

Past Weather in Ho Chi Minh — Graph

°F

Ho Chi Minh Temperature Yesterday

Maximum temperature yesterday: 93 °F (at 1:00 pm)
Minimum temperature yesterday: 79 °F (at 4:00 am)
Average temperature yesterday: 85 °F

High & Low Weather Summary for the Past Weeks

 TemperatureHumidityPressure
High99 °F (Apr 22, 1:00 pm)94% (Apr 13, 4:00 am)29.92 "Hg (Apr 13, 4:00 am)
Low77 °F (Apr 23, 12:30 pm)30% (Apr 15, 2:00 pm)29.68 "Hg (Apr 22, 3:00 pm)
Average86 °F70%29.81 "Hg
* Reported Apr 13 4:00 am — Apr 28 4:30 am, Ho Chi Minh, Weather by CustomWeather, © 2017

Note: Actual official high and low records may vary slightly from our data, if they occured in-between our weather recording intervals... More about our weather records

Advertising

Ho Chi Minh Weather History for the Previous 24 Hours

Scroll right to see more
 ConditionsComfort  
Time TempWeatherWind HumidityBarometerVisibility
4:30 am
Fri, Apr 28
81 °FPassing clouds.1 mph89%29.80 "Hg5 mi
4:00 am81 °FPassing clouds.2 mph89%29.80 "Hg5 mi
3:30 am81 °FPassing clouds.1 mph94%29.80 "Hg5 mi
3:00 am81 °FHaze.2 mph94%29.80 "Hg5 mi
2:30 am81 °FPassing clouds.2 mph94%29.80 "Hg5 mi
2:00 am81 °FClear.2 mph94%29.80 "Hg10 mi
1:30 am81 °FPassing clouds.2 mph94%29.80 "HgN/A
1:00 am82 °FPassing clouds.3 mph89%29.83 "HgN/A
12:30 am82 °FPassing clouds.5 mph89%29.83 "HgN/A
12:00 am82 °FPassing clouds.2 mph89%29.83 "HgN/A
11:30 pm
Thu, Apr 27
82 °FPassing clouds.3 mph89%29.83 "HgN/A
11:00 pm82 °FPassing clouds.1 mph89%29.83 "HgN/A
10:30 pm82 °FPassing clouds.3 mph89%29.86 "HgN/A
10:00 pm82 °FPassing clouds.1 mph89%29.86 "HgN/A
9:30 pm82 °FPassing clouds.3 mph89%29.86 "HgN/A
9:00 pm81 °FPassing clouds.3 mph89%29.83 "HgN/A
8:30 pm81 °FPassing clouds.2 mph94%29.83 "Hg5 mi
7:30 pm84 °FPassing clouds.3 mph79%29.80 "HgN/A
7:00 pm84 °FPassing clouds.3 mph79%29.77 "Hg6 mi
6:30 pm86 °FScattered showers. Passing clouds.6 mph62%29.77 "HgN/A
6:00 pm90 °FScattered showers. Scattered clouds.7 mph55%29.74 "HgN/A
5:30 pm90 °FScattered clouds.9 mph55%29.74 "HgN/A
1:30 pm93 °FPartly sunny.3 mph49%29.74 "HgN/A
1:00 pm93 °FPartly sunny.3 mph47%29.77 "HgN/A
12:30 pm91 °FPartly sunny.1 mph52%29.80 "HgN/A
11:30 am90 °FSprinkles. Scattered clouds.1 mph55%29.83 "HgN/A
10:30 am90 °FScattered clouds.5 mph59%29.86 "HgN/A
10:00 am90 °FPartly sunny.3 mph63%29.86 "HgN/A
9:30 am90 °FPartly sunny.5 mph59%29.86 "HgN/A
8:30 am88 °FScattered clouds.5 mph66%29.86 "Hg5 mi
8:00 am86 °FScattered clouds.1 mph75%29.86 "Hg4 mi
7:30 am84 °FFog.1 mph84%29.86 "Hg2 mi
7:00 am84 °FFog.1 mph84%29.83 "Hg2 mi
6:30 am81 °FFog.1 mph94%29.83 "Hg2 mi
5:30 am79 °FFog.1 mph89%29.80 "Hg2 mi
Weather by CustomWeather, © 2017

See weather overviewHow to use our weather pages